Time,TemperatureF,DewpointF,PressureIn,WindDirection,WindDirectionDegrees,WindSpeedMPH,WindSpeedGustMPH,Humidity,HourlyPrecipIn,Conditions,Clouds,dailyrainin,SoftwareType,DateUTC
2013-10-15 00:13:00,43.0,43.0,-100.00,NNE,25,2.0,7.0,99,0.04,,,-99.99,,2013-10-15 05:13:00,
2013-10-15 00:53:00,44.0,44.0,-100.00,NNE,30,2.0,9.0,99,0.01,,,-99.99,,2013-10-15 05:53:00,
2013-10-15 01:12:00,44.0,44.0,-100.00,NNE,20,4.0,9.0,99,0.01,,,-99.99,,2013-10-15 06:12:00,
2013-10-15 01:52:00,44.0,44.0,-100.00,North,10,2.0,9.0,99,0.03,,,-99.99,,2013-10-15 06:52:00,
2013-10-15 02:12:00,44.0,44.0,-100.00,NE,50,3.0,9.0,99,0.04,,,-99.99,,2013-10-15 07:12:00,
2013-10-15 02:53:00,44.0,44.0,-100.00,NE,40,4.0,9.0,99,0.01,,,-99.99,,2013-10-15 07:53:00,
2013-10-15 03:12:00,44.0,44.0,-100.00,NNE,30,4.0,9.0,99,0.07,,,-99.99,,2013-10-15 08:12:00,
2013-10-15 03:52:00,44.0,44.0,-100.00,North,0,2.0,9.0,99,0.08,,,-99.99,,2013-10-15 08:52:00,
2013-10-15 04:12:00,44.0,44.0,-100.00,NNE,30,3.0,9.0,99,0.04,,,-99.99,,2013-10-15 09:12:00,
2013-10-15 04:53:00,44.0,44.0,-100.00,NE,35,2.0,9.0,99,0.01,,,-99.99,,2013-10-15 09:53:00,
2013-10-15 05:12:00,44.0,44.0,-100.00,NNE,25,4.0,9.0,99,0.10,,,-99.99,,2013-10-15 10:12:00,
2013-10-15 05:53:00,44.0,44.0,-100.00,NNE,15,2.0,9.0,99,0.03,,,-99.99,,2013-10-15 10:53:00,
2013-10-15 06:11:00,44.0,44.0,-100.00,North,10,4.0,9.0,99,0.03,,,-99.99,,2013-10-15 11:11:00,
2013-10-15 06:53:00,44.0,44.0,-100.00,NNW,345,3.0,9.0,99,0.03,,,-99.99,,2013-10-15 11:53:00,
2013-10-15 07:12:00,44.0,44.0,-100.00,North,10,2.0,19.0,99,0.01,,,-99.99,,2013-10-15 12:12:00,
2013-10-15 07:52:00,44.0,44.0,-100.00,North,10,3.0,9.0,99,0.03,,,-99.99,,2013-10-15 12:52:00,
2013-10-15 08:11:00,44.0,44.0,-100.00,NNW,340,4.0,9.0,99,0.01,,,-99.99,,2013-10-15 13:11:00,
2013-10-15 08:52:00,43.0,43.0,-100.00,North,0,4.0,9.0,99,0.00,,,-99.99,,2013-10-15 13:52:00,
2013-10-15 09:12:00,43.0,43.0,-100.00,North,355,4.0,9.0,99,0.01,,,-99.99,,2013-10-15 14:12:00,
2013-10-15 09:52:00,43.0,43.0,-100.00,NNW,340,4.0,9.0,99,0.01,,,-99.99,,2013-10-15 14:52:00,
2013-10-15 10:11:00,43.0,43.0,-100.00,North,0,4.0,9.0,99,0.03,,,-99.99,,2013-10-15 15:11:00,
2013-10-15 10:53:00,43.0,43.0,-100.00,North,0,6.0,9.0,99,0.01,,,-99.99,,2013-10-15 15:53:00,
2013-10-15 11:13:00,43.0,43.0,-100.00,North,0,5.0,9.0,99,0.01,,,-99.99,,2013-10-15 16:13:00,
2013-10-15 11:53:00,44.0,44.0,-100.00,North,355,4.0,9.0,99,0.01,,,-99.99,,2013-10-15 16:53:00,
2013-10-15 12:12:00,44.0,44.0,-100.00,NNW,345,4.0,21.0,99,0.00,,,-99.99,,2013-10-15 17:12:00,
2013-10-15 12:53:00,43.0,43.0,-100.00,NNW,345,4.0,9.0,99,0.01,,,-99.99,,2013-10-15 17:53:00,
2013-10-15 13:12:00,43.0,43.0,-100.00,NNW,340,4.0,22.0,99,0.01,,,-99.99,,2013-10-15 18:12:00,
2013-10-15 13:52:00,43.0,43.0,-100.00,North,0,4.0,19.0,99,0.01,,,-99.99,,2013-10-15 18:52:00,
2013-10-15 14:11:00,43.0,43.0,-100.00,NNW,345,6.0,25.0,99,0.01,,,-99.99,,2013-10-15 19:11:00,
2013-10-15 14:52:00,44.0,44.0,-100.00,North,0,4.0,9.0,99,0.01,,,-99.99,,2013-10-15 19:52:00,
2013-10-15 15:12:00,44.0,44.0,-100.00,NW,325,5.0,20.0,99,0.01,,,-99.99,,2013-10-15 20:12:00,
2013-10-15 15:52:00,44.0,44.0,-100.00,NNW,345,4.0,19.0,99,0.00,,,-99.99,,2013-10-15 20:52:00,
2013-10-15 16:12:00,43.0,43.0,-100.00,NNW,340,6.0,19.0,99,0.00,,,-99.99,,2013-10-15 21:12:00,
2013-10-15 16:54:00,43.0,43.0,-100.00,NNW,340,5.0,21.0,99,0.00,,,-99.99,,2013-10-15 21:54:00,
2013-10-15 17:13:00,43.0,43.0,-100.00,NW,325,4.0,9.0,99,0.00,,,-99.99,,2013-10-15 22:13:00,
2013-10-15 17:53:00,44.0,43.0,-100.00,NW,325,4.0,9.0,98,0.00,,,-99.99,,2013-10-15 22:53:00,
2013-10-15 18:12:00,44.0,44.0,-100.00,NNW,340,4.0,9.0,98,0.00,,,-99.99,,2013-10-15 23:12:00,
2013-10-15 18:52:00,43.0,41.0,-100.00,NW,325,4.0,9.0,93,0.00,,,-99.99,,2013-10-15 23:52:00,
2013-10-15 19:12:00,43.0,42.0,-100.00,NW,325,6.0,9.0,93,0.00,,,-99.99,,2013-10-16 00:12:00,
2013-10-15 19:52:00,44.0,42.0,-100.00,NNW,335,5.0,9.0,92,0.00,,,-99.99,,2013-10-16 00:52:00,
2013-10-15 20:11:00,44.0,41.0,-100.00,NNW,335,6.0,19.0,91,0.00,,,-99.99,,2013-10-16 01:11:00,
2013-10-15 20:52:00,43.0,40.0,-100.00,NNW,330,6.0,9.0,87,0.00,,,-99.99,,2013-10-16 01:52:00,
2013-10-15 21:12:00,43.0,39.0,-100.00,NNW,340,4.0,9.0,87,0.00,,,-99.99,,2013-10-16 02:12:00,
2013-10-15 21:52:00,42.0,38.0,-100.00,NW,325,5.0,9.0,86,0.00,,,-99.99,,2013-10-16 02:52:00,
2013-10-15 22:11:00,42.0,38.0,-100.00,NW,320,6.0,9.0,86,0.00,,,-99.99,,2013-10-16 03:11:00,
2013-10-15 22:55:00,40.0,37.0,-100.00,NNW,330,4.0,9.0,86,0.00,,,-99.99,,2013-10-16 03:55:00,
2013-10-15 23:14:00,41.0,37.0,-100.00,NNW,330,6.0,9.0,86,0.00,,,-99.99,,2013-10-16 04:14:00,
2013-10-15 23:54:00,39.0,35.0,-100.00,NW,315,6.0,9.0,87,0.00,,,-99.99,,2013-10-16 04:54:00,